Location: Newark
(44.4156°N, 12.1972°E)
Time: 15:25:40
(UTC+00:00)

STARLINK-1094 - Pass Details

Date: 04 February 2020
Orbit: 348 x 351 km, 53.0° (Epoch: 18 February)

Event Time Altitude Azimuth Distance (km) Brightness Sun altitude
Rises 17:11:28 0° 291° (WNW) 2,162 7.7 -8.9°
Reaches altitude 10° 17:13:57 10° 269° (W) 1,315 7.1 -9.3°
Maximum altitude 17:15:54 16° 227° (SW) 1,005 5.9 -9.7°
Drops below altitude 10° 17:17:51 10° 185° (S) 1,309 5.8 -10.0°
Sets 17:20:18 0° 163° (SSE) 2,147 6.6 -10.4°
